Time,TemperatureF,DewpointF,PressureIn,WindDirection,WindDirectionDegrees,WindSpeedMPH,WindSpeedGustMPH,Humidity,HourlyPrecipIn,Conditions,Clouds,dailyrainin,SoftwareType,DateUTC
2013-08-16 00:02:00,53.0,49.0,-100.00,WNW,295,1.0,2.0,86,0.00,,,-99.99,,2013-08-16 05:02:00,
2013-08-16 00:12:00,53.0,49.0,-100.00,WNW,295,1.0,2.0,86,0.00,,,-99.99,,2013-08-16 05:12:00,
2013-08-16 02:00:00,51.0,47.0,-100.00,WNW,300,1.0,2.0,87,0.00,,,-99.99,,2013-08-16 07:00:00,
2013-08-16 02:01:00,51.0,47.0,-100.00,WNW,300,1.0,2.0,87,0.00,,,-99.99,,2013-08-16 07:01:00,
2013-08-16 02:11:00,51.0,47.0,-100.00,WNW,300,1.0,2.0,87,0.00,,,-99.99,,2013-08-16 07:11:00,
2013-08-16 04:53:00,49.0,45.0,-100.00,West,280,1.0,2.0,87,0.00,,,-99.99,,2013-08-16 09:53:00,
2013-08-16 05:03:00,49.0,45.0,-100.00,West,280,1.0,2.0,87,0.00,,,-99.99,,2013-08-16 10:03:00,
2013-08-16 05:13:00,49.0,45.0,-100.00,West,280,1.0,2.0,87,0.00,,,-99.99,,2013-08-16 10:13:00,
2013-08-16 05:53:00,49.0,45.0,-100.00,WNW,290,1.0,3.0,87,0.00,,,-99.99,,2013-08-16 10:53:00,
2013-08-16 06:02:00,49.0,45.0,-100.00,WNW,290,1.0,3.0,87,0.00,,,-99.99,,2013-08-16 11:02:00,
2013-08-16 06:12:00,49.0,45.0,-100.00,WNW,290,1.0,3.0,87,0.00,,,-99.99,,2013-08-16 11:12:00,
2013-08-16 07:42:00,50.0,46.0,-100.00,WNW,285,3.0,4.0,87,0.00,,,-99.99,,2013-08-16 12:42:00,
2013-08-16 07:52:00,50.0,46.0,-100.00,WNW,285,3.0,4.0,87,0.00,,,-99.99,,2013-08-16 12:52:00,
2013-08-16 08:02:00,50.0,46.0,-100.00,WNW,285,3.0,4.0,87,0.00,,,-99.99,,2013-08-16 13:02:00,
2013-08-16 08:11:00,50.0,46.0,-100.00,WNW,285,3.0,4.0,87,0.00,,,-99.99,,2013-08-16 13:11:00,
2013-08-16 08:53:00,60.0,54.0,-100.00,WNW,285,2.0,4.0,79,0.00,,,-99.99,,2013-08-16 13:53:00,
2013-08-16 09:02:00,60.0,54.0,-100.00,WNW,285,2.0,4.0,79,0.00,,,-99.99,,2013-08-16 14:02:00,
2013-08-16 09:11:00,60.0,54.0,-100.00,WNW,285,2.0,4.0,79,0.00,,,-99.99,,2013-08-16 14:11:00,
2013-08-16 13:50:00,-999.0,-99.9,-100.00,West,270,4.0,12.0,20,0.00,,,-99.99,,2013-08-16 18:50:00,
2013-08-16 19:42:00,74.0,52.0,-100.00,WNW,295,0.0,2.0,46,0.00,,,-99.99,,2013-08-17 00:42:00,
2013-08-16 19:52:00,74.0,52.0,-100.00,WNW,295,0.0,2.0,46,0.00,,,-99.99,,2013-08-17 00:52:00,
2013-08-16 20:01:00,74.0,52.0,-100.00,WNW,295,0.0,2.0,46,0.00,,,-99.99,,2013-08-17 01:01:00,
2013-08-16 20:11:00,74.0,52.0,-100.00,WNW,295,0.0,2.0,46,0.00,,,-99.99,,2013-08-17 01:11:00,
2013-08-16 20:52:00,67.0,57.0,-100.00,West,280,1.0,2.0,70,0.00,,,-99.99,,2013-08-17 01:52:00,
2013-08-16 21:01:00,67.0,57.0,-100.00,West,280,1.0,2.0,70,0.00,,,-99.99,,2013-08-17 02:01:00,
2013-08-16 21:11:00,67.0,57.0,-100.00,West,280,1.0,2.0,70,0.00,,,-99.99,,2013-08-17 02:11:00,
2013-08-16 21:52:00,65.0,55.0,-100.00,WNW,290,2.0,2.0,71,0.00,,,-99.99,,2013-08-17 02:52:00,
2013-08-16 22:02:00,65.0,55.0,-100.00,WNW,290,2.0,2.0,71,0.00,,,-99.99,,2013-08-17 03:02:00,
2013-08-16 22:11:00,65.0,55.0,-100.00,WNW,290,2.0,2.0,71,0.00,,,-99.99,,2013-08-17 03:11:00,
2013-08-16 22:53:00,63.0,55.0,-100.00,WNW,285,2.0,4.0,76,0.00,,,-99.99,,2013-08-17 03:53:00,
2013-08-16 23:03:00,63.0,55.0,-100.00,WNW,285,2.0,4.0,76,0.00,,,-99.99,,2013-08-17 04:03:00,
2013-08-16 23:12:00,63.0,55.0,-100.00,WNW,285,2.0,4.0,76,0.00,,,-99.99,,2013-08-17 04:12:00,
2013-08-16 23:53:00,60.0,54.0,-100.00,WNW,295,1.0,2.0,82,0.00,,,-99.99,,2013-08-17 04:53:00,